Home > Time Zones > World Clock > Weather > U.S.A. > Hilo > Past weeks

Flag for U.S.A. Weather past 2 weeks in Hilo, Hawaii, U.S.A.

Now
78 °F

Partly sunny.


Feels Like: 80 °F
Forecast: 71 / 82 °F
Wind: 6 mph from South

Location: Hilo International Airport

Current Time: Apr 26, 2015 at 9:33:25 AM

Latest Report: Apr 26, 2015 at 8:53 AM


Visibility: 10 mi

Pressure: 30.01 "Hg

Humidity: 71%

Dew point: 68 °F

Location of HiloLocation

Historic Weather in Hilo — Graph

°F

Hilo temperature yesterday

Maximum temperature yesterday: 80 °F (at 10:53 AM)
Minimum temperature yesterday: 68 °F (at 5:53 AM)
Average temperature yesterday: 74 °F

Past Weeks' High & Low Weather Summary

 TemperatureHumidityPressure
High83 °F (Apr 22, 12:53 PM)100% (Apr 16, 5:33 AM)30.18 "Hg (Apr 16, 5:33 AM)
Low63 °F (Apr 16, 5:33 AM)49% (Apr 21, 10:53 AM)29.96 "Hg (Apr 25, 3:53 PM)
Average72 °F83%30.07 "Hg
* Reported Apr 11 7:53 AM — Apr 26 7:53 AM, Hilo, Weather by CustomWeather, © 2015

Note: Actual official high and low records may vary slightly from our data, if they occured in-between our weather recording intervals... More about our weather records

Advertising

Hilo weather history for previous 24 hours

 ConditionsComfort  
Time TempWeatherWind HumidityBarometerVisibility
7:53 AM
Sun, Apr 26
75 °FPartly sunny.6 mph69%30.01 "Hg10 mi
6:53 AM71 °FPartly sunny.7 mph73%30.00 "Hg10 mi
5:53 AM68 °FPassing clouds.7 mph78%29.98 "Hg10 mi
4:53 AM68 °FPassing clouds.6 mph84%29.97 "Hg10 mi
3:53 AM68 °FPassing clouds.5 mph84%29.97 "Hg10 mi
2:53 AM68 °FPassing clouds.5 mph87%29.97 "Hg10 mi
1:53 AM68 °FClear.5 mph90%29.98 "Hg10 mi
12:53 AM70 °FClear.3 mph84%30.00 "Hg10 mi
11:53 PM
Sat, Apr 25
71 °FPassing clouds.5 mph81%30.01 "Hg8 mi
10:53 PM72 °FPassing clouds.5 mph81%30.03 "Hg7 mi
9:53 PM72 °FOvercast.5 mph84%30.03 "Hg10 mi
8:53 PM73 °FOvercast.3 mph81%30.02 "Hg10 mi
7:53 PM73 °FPassing clouds.3 mph81%30.01 "Hg10 mi
6:53 PM75 °FOvercast.3 mph76%29.99 "Hg10 mi
5:53 PM76 °FMostly cloudy.5 mph74%29.98 "Hg10 mi
4:53 PM76 °FPartly sunny.12 mph77%29.97 "Hg10 mi
3:53 PM76 °FMostly cloudy.15 mph72%29.96 "Hg10 mi
2:53 PM78 °FPartly sunny.17 mph69%29.96 "Hg10 mi
1:53 PM77 °FOvercast.17 mph71%29.98 "Hg10 mi
12:53 PM79 °FPartly sunny.17 mph72%30.00 "Hg3 mi
12:05 PM75 °FLight rain. Fog.14 mph89%30.01 "Hg3 mi
10:53 AM80 °FScattered clouds.8 mph60%30.02 "Hg10 mi
9:53 AM79 °FPartly sunny.10 mph65%30.03 "Hg10 mi
9:39 AM79 °FLight rain. Cloudy.12 mph65%30.03 "Hg10 mi
9:20 AM79 °FPartly sunny.7 mph65%30.03 "Hg10 mi
9:03 AM79 °FMostly cloudy.5 mph70%30.02 "Hg10 mi
Weather by CustomWeather, © 2015

See weather overviewHow to use our weather pages